Fort Meade, MD

11:37 AM EDT on July 26, 2017 (GMT -0400)
Tipton

Weather History for KFME - May, 2012

Change the Weather History Date:

Tuesday, May 1, 2012

  Actual Average (KBWI) Record (KBWI)
Temperature  
Mean Temperature 68 °F -  
Max Temperature 80 °F 72 °F 89 °F (1985)
Min Temperature 55 °F 48 °F 34 °F (1876)
Cooling Degree Days 2    
Growing Degree Days 18 (Base 50)    
Moisture  
Dew Point 57 °F    
Average Humidity 75    
Maximum Humidity 100    
Minimum Humidity 39    
Precipitation  
Precipitation 0.00 in - - ()
Sea Level Pressure  
Sea Level Pressure 30.03 in    
Wind  
Wind Speed 3 mph (WSW)    
Max Wind Speed 15 mph    
Max Gust Speed 21 mph    
Visibility 9 miles    
Events      
Averages and records for this station are not official NWS values.
T = Trace of Precipitation, MM = Missing Value Source: NWS Daily Summary

Daily Weather History Graph

Daily Weather History Graph

Search for Another Location

Airport or City:

Trip Planner

Search our weather history database for the weather conditions in past years. The results will help you decide how hot, cold, wet, or windy it might be!

Date:

Astronomy

May. 01, 2012 Rise Set
Actual Time 6:08 AM EDT 8:00 PM EDT
Civil Twilight 5:39 AM EDT 8:29 PM EDT
Nautical Twilight 5:04 AM EDT 9:04 PM EDT
Astronomical Twilight 4:26 AM EDT 9:42 PM EDT
Moon 3:03 PM EDT (5/1) 3:01 AM EDT (5/1)
Length of Visible Light 14h 50m
Length of Day
13h 52m
Waxing Gibbous, 73% of the Moon is Illuminated
May 1
Waxing Gibbous
May 5
Full
May 12
Last Quarter
May 20
New
May 28
First Quarter

Hourly Weather History & Observations

Time (EDT) Temp. Heat Index Dew Point Humidity Pressure Visibility Wind Dir Wind Speed Gust Speed Precip Events Conditions
12:15 AM 57.2 °F - 44.6 °F 63% 30.14 in 10.0 mi SE 4.6 mph - N/A   Overcast
12:36 AM 57.2 °F - 46.4 °F 67% 30.14 in 10.0 mi Calm Calm - N/A   Overcast
1:00 AM 57.2 °F - 46.4 °F 67% 30.12 in 10.0 mi SE 3.5 mph - N/A   Overcast
1:21 AM 57.2 °F - 48.2 °F 72% 30.11 in 10.0 mi SE 3.5 mph - N/A   Overcast
1:42 AM 55.4 °F - 50.0 °F 82% 30.11 in 10.0 mi Calm Calm - N/A   Overcast
2:03 AM 55.4 °F - 50.0 °F 82% 30.09 in 10.0 mi Calm Calm - N/A   Overcast
2:24 AM 55.4 °F - 50.0 °F 82% 30.08 in 10.0 mi Calm Calm - N/A   Overcast
2:45 AM 55.4 °F - 50.0 °F 82% 30.06 in 10.0 mi Calm Calm - N/A   Overcast
3:06 AM 55.4 °F - 51.8 °F 88% 30.06 in 10.0 mi Calm Calm - N/A   Overcast
3:27 AM 55.4 °F - 51.8 °F 88% 30.05 in 10.0 mi Calm Calm - N/A   Overcast
3:51 AM 55.4 °F - 51.8 °F 88% 30.04 in 10.0 mi Calm Calm - N/A   Overcast
4:12 AM 55.4 °F - 51.8 °F 88% 30.03 in 10.0 mi Calm Calm - N/A   Overcast
4:33 AM 55.4 °F - 51.8 °F 88% 30.03 in 10.0 mi Calm Calm - N/A   Overcast
4:54 AM 55.4 °F - 51.8 °F 88% 30.03 in 10.0 mi Calm Calm - N/A   Overcast
5:15 AM 55.4 °F - 51.8 °F 88% 30.03 in 10.0 mi Calm Calm - N/A   Overcast
5:36 AM 55.4 °F - 51.8 °F 88% 30.03 in 10.0 mi SSW 3.5 mph - N/A   Overcast
5:57 AM 55.4 °F - 53.6 °F 94% 30.03 in 10.0 mi Calm Calm - N/A   Overcast
6:18 AM 55.4 °F - 53.6 °F 94% 30.03 in 7.0 mi SW 3.5 mph - N/A   Overcast
6:39 AM 55.4 °F - 53.6 °F 94% 30.03 in 3.0 mi SSW 3.5 mph - N/A   Overcast
7:03 AM 55.4 °F - 55.4 °F 100% 30.00 in 2.5 mi South 8.1 mph - N/A   Overcast
7:24 AM 57.2 °F - 55.4 °F 94% 30.01 in 1.8 mi SW 6.9 mph - N/A   Overcast
7:45 AM 59.0 °F - 57.2 °F 94% 30.01 in 3.0 mi SW 6.9 mph - N/A   Scattered Clouds
8:06 AM 60.8 °F - 59.0 °F 94% 30.02 in 3.0 mi WSW 6.9 mph - N/A   Mostly Cloudy
8:27 AM 60.8 °F - 60.8 °F 100% 30.02 in 3.0 mi SW 9.2 mph - N/A   Mostly Cloudy
8:48 AM 62.6 °F - 60.8 °F 94% 30.01 in 5.0 mi SW 9.2 mph - N/A   Scattered Clouds
9:09 AM 62.6 °F - 60.8 °F 94% 30.01 in 7.0 mi SW 8.1 mph - N/A   Clear
9:30 AM 64.4 °F - 60.8 °F 88% 30.01 in 10.0 mi WSW 10.4 mph - N/A   Clear
9:51 AM 68.0 °F - 62.6 °F 83% 30.01 in 10.0 mi WSW 9.2 mph - N/A   Clear
11:39 AM 71.6 °F - 62.6 °F 73% 30.03 in 10.0 mi WSW 10.4 mph - N/A   Scattered Clouds
12:00 PM 75.2 °F - 62.6 °F 65% 30.02 in 10.0 mi WSW 9.2 mph - N/A   Clear
12:21 PM 77.0 °F - 60.8 °F 57% 30.02 in 10.0 mi West 10.4 mph 18.4 mph N/A   Scattered Clouds
12:42 PM 75.2 °F - 60.8 °F 61% 30.02 in 10.0 mi West 10.4 mph - N/A   Mostly Cloudy
1:03 PM 78.8 °F - 60.8 °F 54% 30.02 in 10.0 mi WSW 15.0 mph 20.7 mph N/A   Scattered Clouds
1:24 PM 78.8 °F - 60.8 °F 54% 30.02 in 10.0 mi West 10.4 mph - N/A   Scattered Clouds
1:45 PM 78.8 °F - 59.0 °F 51% 30.01 in 10.0 mi NW 8.1 mph 16.1 mph N/A   Scattered Clouds
2:06 PM 77.0 °F - 60.8 °F 57% 30.02 in 10.0 mi WNW 6.9 mph - N/A   Mostly Cloudy
2:09 PM 77.0 °F - 60.8 °F 57% 30.02 in 10.0 mi WNW 4.6 mph - N/A   Mostly Cloudy
2:30 PM 78.8 °F - 60.8 °F 54% 30.01 in 10.0 mi NW 6.9 mph - N/A   Scattered Clouds
2:51 PM 80.6 °F 81.5 °F 60.8 °F 51% 30.01 in 10.0 mi WNW 8.1 mph - N/A   Clear
3:12 PM 80.6 °F 81.1 °F 59.0 °F 48% 30.00 in 10.0 mi WNW 4.6 mph - N/A   Clear
3:33 PM 80.6 °F 80.8 °F 57.2 °F 45% 30.00 in 10.0 mi West 8.1 mph 18.4 mph N/A   Mostly Cloudy
3:54 PM 80.6 °F 81.1 °F 59.0 °F 48% 30.00 in 10.0 mi WNW 4.6 mph - N/A   Scattered Clouds
4:15 PM 80.6 °F 80.8 °F 57.2 °F 45% 30.00 in 10.0 mi WNW 9.2 mph - N/A   Clear
4:36 PM 80.6 °F 80.8 °F 57.2 °F 45% 30.01 in 10.0 mi WNW 5.8 mph - N/A   Clear
4:57 PM 80.6 °F 80.5 °F 55.4 °F 42% 30.00 in 10.0 mi NW 8.1 mph - N/A   Clear
5:18 PM 80.6 °F 80.3 °F 53.6 °F 39% 30.00 in 10.0 mi NNW 5.8 mph - N/A   Clear
5:39 PM 78.8 °F - 55.4 °F 44% 30.00 in 10.0 mi Calm Calm - N/A   Clear
6:03 PM 78.8 °F - 55.4 °F 44% 30.00 in 10.0 mi West 3.5 mph - N/A   Clear
6:24 PM 77.0 °F - 59.0 °F 54% 30.00 in 10.0 mi Calm Calm - N/A   Clear
6:45 PM 75.2 °F - 59.0 °F 57% 30.00 in 10.0 mi Calm Calm - N/A   Clear
7:06 PM 73.4 °F - 59.0 °F 61% 29.99 in 10.0 mi Calm Calm - N/A   Clear
7:27 PM 71.6 °F - 60.8 °F 69% 29.99 in 10.0 mi Calm Calm - N/A   Clear
7:48 PM 69.8 °F - 62.6 °F 78% 30.00 in 10.0 mi Calm Calm - N/A   Clear
8:09 PM 68.0 °F - 62.6 °F 83% 30.00 in 10.0 mi Calm Calm - N/A   Clear
8:30 PM 64.4 °F - 60.8 °F 88% 30.00 in 10.0 mi Calm Calm - N/A   Clear
8:51 PM 62.6 °F - 60.8 °F 94% 30.01 in 10.0 mi Calm Calm - N/A   Clear
9:12 PM 62.6 °F - 60.8 °F 94% 30.02 in 10.0 mi Calm Calm - N/A   Clear
9:36 PM 60.8 °F - 59.0 °F 94% 30.02 in 10.0 mi Calm Calm - N/A   Clear
9:57 PM 60.8 °F - 59.0 °F 94% 30.03 in 7.0 mi Calm Calm - N/A   Clear
10:18 PM 60.8 °F - 59.0 °F 94% 30.03 in 7.0 mi Calm Calm - N/A   Clear
10:39 PM 60.8 °F - 59.0 °F 94% 30.03 in 5.0 mi Calm Calm - N/A   Clear
11:00 PM 59.0 °F - 57.2 °F 94% 30.02 in 7.0 mi Calm Calm - N/A   Clear
11:21 PM 59.0 °F - 57.2 °F 94% 30.02 in 5.0 mi Calm Calm - N/A   Clear
11:42 PM 59.0 °F - 57.2 °F 94% 30.03 in 4.0 mi Calm Calm - N/A   Clear